GW1200 Weather Reports


time (UTC)temp
C
wind
direction
speed
KPH
gust
KPH
rain 1hr
cm
rain 24hr
cm
rain mn
cm
humidity
%
barometer
mb
20260906064207 26 224 0.0 0.0 0.00 0.00 0.00 94 4248.3
20260906063203 26 223 0.0 0.0 0.00 0.00 0.00 92 4248.2
20260906062203 26 221 1.6 1.6 0.00 0.00 0.00 92 4248.2
20260906061200 26 321 0.0 0.0 0.00 0.00 0.00 90 4248.2
20260906060159 26 236 0.0 1.6 0.00 0.00 0.00 90 4248.1
20260906055155 27 220 1.6 3.2 0.00 0.00 0.00 89 4248.0
20260906054151 26 236 3.2 3.2 0.00 0.00 0.00 91 4248.2
20260906053149 26 223 1.6 3.2 0.00 0.00 0.00 91 4248.3
20260906052147 26 222 1.6 1.6 0.00 0.00 0.00 95 4248.3
20260906051143 27 245 0.0 0.0 0.00 0.00 0.00 94 4248.8
20260906050139 27 231 1.6 1.6 0.00 0.00 0.00 94 4248.6
20260906045139 26 235 0.0 1.6 0.00 0.03 0.03 94 4248.6
20260906044136 26 236 1.6 1.6 0.00 0.03 0.03 94 4248.8
20260906043133 27 351 0.0 0.0 0.00 0.03 0.03 96 4248.6
20260906042133 27 350 1.6 1.6 0.00 0.03 0.03 93 4248.7
20260906041129 26 225 0.0 0.0 0.00 0.03 0.03 93 4248.6
20260906040126 26 225 1.6 1.6 0.00 0.03 0.03 93 4248.6
20260906035123 26 224 1.6 3.2 0.00 0.03 0.03 92 4248.5
20260906034123 27 220 1.6 1.6 0.00 0.03 0.03 91 4248.5
20260906033119 27 215 1.6 1.6 0.00 0.03 0.03 91 4248.5
20260906032116 27 221 0.0 1.6 0.00 0.03 0.03 90 4248.8
20260906031113 27 220 0.0 0.0 0.00 0.03 0.03 90 4248.4
20260906030113 27 238 0.0 0.0 0.00 0.03 0.03 89 4248.5
20260906025111 28 222 1.6 1.6 0.00 0.03 0.03 87 4248.3
20260906024107 27 218 0.0 1.6 0.00 0.03 0.03 89 4248.1
20260906023103 27 225 0.0 0.0 0.00 0.03 0.03 89 4248.1
20260906022100 28 224 1.6 1.6 0.00 0.03 0.03 88 4247.9
20260906021054 28 228 0.0 0.0 0.00 0.03 0.03 87 4247.6
20260906020054 28 232 1.6 1.6 0.00 0.03 0.03 85 4247.6
20260906015053 28 237 1.6 1.6 0.00 0.03 0.03 83 4247.5
20260906014050 29 211 0.0 1.6 0.00 0.03 0.03 84 4247.5
20260906013046 29 210 0.0 0.0 0.00 0.03 0.03 83 4247.7
20260906012046 30 211 0.0 0.0 0.00 0.03 0.03 80 4247.4
20260906011042 30 215 1.6 1.6 0.00 0.03 0.03 83 4247.5
20260906010040 30 216 0.0 0.0 0.00 0.03 0.03 80 4247.1
20260906005038 30 231 3.2 3.2 0.00 0.03 0.03 79 4247.2
20260906004039 30 223 1.6 3.2 0.00 0.03 0.03 78 4247.2
20260906003036 31 205 0.0 0.0 0.00 0.03 0.03 74 4247.1
20260906002031 31 246 1.6 1.6 0.00 0.03 0.03 75 4247.1
20260906001027 31 246 0.0 0.0 0.00 0.03 0.03 74 4247.1
20260906000024 32 247 0.0 0.0 0.00 0.03 0.03 77 4247.1
20260905235018 33 246 0.0 1.6 0.00 0.03 0.03 65 4247.1
20260905234014 33 246 0.0 0.0 0.00 0.03 0.03 67 4247.1
20260905233015 33 246 0.0 0.0 0.00 0.03 0.03 65 4247.4
20260905232012 33 71 0.0 0.0 0.00 0.03 0.03 62 4246.9
20260905231009 33 347 0.0 0.0 0.00 0.03 0.03 68 4247.2
20260905230006 33 340 0.0 0.0 0.00 0.03 0.03 72 4247.2
20260905225002 36 339 1.6 1.6 0.00 0.03 0.03 54 4247.2
20260905224002 36 339 0.0 0.0 0.00 0.03 0.03 54 4247.0
20260905223001 36 339 0.0 1.6 0.00 0.03 0.03 55 4246.9
20260905221956 35 339 0.0 1.6 0.00 0.03 0.03 63 4247.0
20260905220955 36 338 0.0 1.6 0.00 0.03 0.03 54 4247.1
20260905215949 36 338 1.6 3.2 0.00 0.03 0.03 53 4247.3
20260905214948 36 338 1.6 1.6 0.00 0.03 0.03 55 4247.3
20260905213943 36 337 1.6 1.6 0.00 0.03 0.03 56 4247.2
20260905212940 35 330 3.2 3.2 0.00 0.03 0.03 63 4247.4
20260905211940 36 321 1.6 1.6 0.00 0.03 0.03 57 4247.3
20260905210938 36 339 1.6 1.6 0.00 0.03 0.03 57 4247.4
20260905205938 36 49 0.0 1.6 0.00 0.03 0.03 58 4247.5
20260905204937 36 25 3.2 3.2 0.00 0.03 0.03 53 4247.6
20260905203932 36 321 1.6 3.2 0.00 0.03 0.03 55 4247.9
20260905202929 36 325 3.2 3.2 0.00 0.03 0.03 57 4247.9
20260905201926 36 2 1.6 1.6 0.00 0.03 0.03 56 4247.9
20260905200920 37 307 0.0 1.6 0.00 0.03 0.03 54 4248.2
20260905195920 36 343 3.2 3.2 0.00 0.03 0.03 57 4248.5
20260905194918 37 249 1.6 1.6 0.00 0.03 0.03 54 4248.3
20260905193917 36 23 1.6 1.6 0.00 0.03 0.03 60 4248.6
20260905192913 36 336 3.2 3.2 0.00 0.03 0.03 57 4248.6
20260905191908 36 337 3.2 3.2 0.00 0.03 0.03 62 4248.9
20260905190908 36 326 3.2 3.2 0.00 0.03 0.03 60 4249.2
20260905185904 36 343 4.8 4.8 0.00 0.03 0.03 56 4249.3
20260905184904 36 357 3.2 3.2 0.00 0.03 0.03 58 4249.2
20260905183902 36 47 1.6 3.2 0.00 0.03 0.03 59 4249.5
20260905182859 35 26 3.2 3.2 0.00 0.03 0.03 60 4249.8
20260905181854 35 353 3.2 4.8 0.00 0.03 0.03 66 4249.6
20260905180853 35 23 3.2 3.2 0.00 0.03 0.03 69 4249.8
20260905175849 35 358 1.6 1.6 0.00 0.03 0.03 67 4250.0
20260905174849 35 15 3.2 4.8 0.00 0.03 0.03 72 4249.9
20260905173847 34 1 3.2 4.8 0.00 0.03 0.03 71 4249.9
20260905172843 34 22 3.2 3.2 0.00 0.03 0.03 69 4250.1
20260905171843 33 13 3.2 3.2 0.00 0.03 0.03 75 4250.1
20260905170841 33 4 1.6 3.2 0.00 0.03 0.03 75 4250.2
20260905165836 33 6 3.2 3.2 0.00 0.03 0.03 71 4250.4
20260905164832 33 6 1.6 1.6 0.00 0.03 0.03 77 4250.6
20260905163828 33 8 3.2 3.2 0.00 0.03 0.03 83 4250.7
20260905162826 32 19 1.6 1.6 0.00 0.03 0.03 83 4250.9
20260905161826 32 19 1.6 3.2 0.00 0.03 0.03 84 4250.9
20260905160824 32 25 1.6 3.2 0.00 0.03 0.03 84 4251.2
20260905155819 31 33 1.6 1.6 0.00 0.03 0.03 83 4251.3
20260905154818 31 48 3.2 3.2 0.00 0.03 0.03 82 4251.3
20260905153815 31 61 1.6 1.6 0.00 0.03 0.03 82 4251.3
20260905152811 30 61 0.0 0.0 0.00 0.03 0.03 84 4251.3
20260905151811 30 54 0.0 0.0 0.00 0.03 0.03 84 4251.3
20260905150807 30 55 1.6 1.6 0.00 0.03 0.03 81 4251.3
20260905145804 28 30 0.0 1.6 0.00 0.03 0.03 86 4251.3
20260905144803 28 33 1.6 1.6 0.00 0.03 0.03 90 4251.4
20260905143803 28 33 1.6 3.2 0.00 0.03 0.03 92 4251.2
20260905142803 27 33 1.6 1.6 0.00 0.03 0.03 95 4251.3
20260905141759 27 18 3.2 3.2 0.00 0.03 0.03 95 4251.3
20260905140756 27 227 0.0 1.6 0.00 0.03 0.03 93 4251.5
20260905135754 26 239 0.0 0.0 0.00 0.03 0.03 94 4251.4
20260905134751 26 298 0.0 1.6 0.00 0.03 0.03 97 4251.6
20260905133751 26 295 0.0 0.0 0.00 0.03 0.03 99 4251.5
20260905132745 25 295 0.0 0.0 0.00 0.03 0.03 99 4251.5
20260905131741 25 7 0.0 0.0 0.00 0.03 0.03 99 4251.8
20260905130737 25 311 1.6 1.6 0.00 0.03 0.03 99 4251.7
20260905125732 25 233 1.6 1.6 0.00 0.03 0.03 99 4251.7
20260905124729 24 227 0.0 0.0 0.00 0.03 0.03 99 4251.8
20260905123725 23 206 0.0 0.0 0.00 0.03 0.03 99 4251.5
20260905122722 23 227 0.0 0.0 0.00 0.03 0.03 99 4251.4
20260905121717 23 210 0.0 1.6 0.00 0.03 0.03 99 4251.4
20260905120713 23 215 1.6 1.6 0.00 0.03 0.03 99 4251.3
20260905115707 23 201 0.0 1.6 0.00 0.03 0.03 99 4251.0
20260905114702 23 214 0.0 0.0 0.00 0.03 0.03 99 4251.1
20260905113700 23 215 1.6 1.6 0.00 0.03 0.03 99 4251.0
20260905112656 23 221 1.6 1.6 0.00 0.03 0.03 99 4251.0
20260905111651 23 232 0.0 0.0 0.00 0.03 0.03 99 4250.6
20260905110650 23 203 0.0 0.0 0.00 0.03 0.03 99 4250.6
20260905105646 23 324 0.0 0.0 0.00 0.03 0.03 99 4250.4
20260905104646 25 1 0.0 0.0 0.00 0.03 0.03 99 4250.2
20260905103643 25 359 3.2 3.2 0.00 0.03 0.03 99 4250.4
20260905102640 25 13 3.2 3.2 0.00 0.03 0.03 99 4250.3
20260905101641 23 195 0.0 0.0 0.00 0.03 0.03 99 4250.3
20260905100636 23 196 0.0 0.0 0.00 0.03 0.03 99 4250.3
20260905095630 23 223 0.0 0.0 0.18 0.03 0.03 99 4250.2
20260905094626 23 235 0.0 0.0 0.00 0.00 0.00 99 4250.1
20260905093626 23 238 0.0 0.0 0.00 0.00 0.00 99 4250.0
20260905092622 23 245 1.6 1.6 0.00 0.00 0.00 99 4249.9
20260905091617 23 222 0.0 0.0 0.00 0.00 0.00 99 4249.8
20260905090612 23 235 0.0 0.0 0.00 0.00 0.00 99 4249.9
20260905085612 23 233 1.6 3.2 0.00 0.00 0.00 99 4249.8
20260905084607 23 229 1.6 1.6 0.00 0.00 0.00 99 4249.8
20260905083602 23 218 1.6 1.6 0.00 0.00 0.00 99 4250.0
20260905082600 23 227 1.6 3.2 0.00 0.00 0.00 99 4249.7
20260905081555 23 222 0.0 0.0 0.00 0.00 0.00 99 4249.8
20260905080556 23 228 0.0 1.6 0.00 0.00 0.00 99 4249.9
20260905075550 23 228 0.0 1.6 0.00 0.00 0.00 99 4249.7
20260905074549 23 209 1.6 1.6 0.00 0.00 0.00 99 4249.6
20260905073547 23 215 1.6 1.6 0.00 0.00 0.00 99 4249.8
20260905072547 23 228 1.6 1.6 0.00 0.00 0.00 99 4249.9
20260905071545 23 223 1.6 1.6 0.00 0.00 0.00 99 4249.9
20260905070541 23 217 1.6 1.6 0.00 0.00 0.00 99 4249.8
20260905065540 23 220 1.6 1.6 0.00 0.00 0.00 99 4250.0